Wind_Speed
26 26 27 26 27 27 27 25 22 21 22 20 19 18 14 12 12 13 15 15 15 15 14 14 14 14 14 14 13 13 12 11 11 10 10 10 9 9 9 9 9 9 9 9 9 8 8 8 7 6 5 5 5 4 5 5 5 6 6 5 5 6 6 6 6 7 8 10 11 12 12 14 15 15 17 19 21 23 24 24 24 24 25 26 27
27 26 27 28 28 28 28 26 23 22 22 20 18 17 14 12 12 14 16 16 15 15 15 14 14 14 14 14 13 13 12 12 11 10 10 10 10 9 9 9 10 10 9 9 9 8 8 8 7 7 6 6 5 5 4 5 5 5 5 5 6 6 6 6 7 8 10 11 12 12 13 14 15 16 17 19 21 23 24 24 24 24 25 26 27
30 27 28 30 29 29 28 25 22 22 22 20 18 17 15 13 13 15 17 16 15 15 15 15 15 15 14 14 14 13 12 11 10 10 11 11 10 9 9 10 10 9 9 9 9 8 8 8 7 6 5 5 5 5 4 5 5 5 5 5 5 6 6 6 7 9 11 12 12 13 14 14 15 16 17 18 20 23 24 24 25 25 24 25 26
30 27 28 30 29 29 27 24 24 24 21 20 19 17 15 13 14 16 17 16 16 15 15 15 15 15 15 14 14 13 12 12 11 11 11 10 10 10 10 10 9 9 9 9 8 8 8 7 6 5 4 4 4 4 4 4 5 5 4 4 5 6 6 6 7 9 10 12 12 13 14 14 15 16 17 19 20 21 22 24 26 25 24 24 25
28 27 28 29 29 28 25 23 25 25 21 20 20 17 14 13 14 16 17 17 16 16 16 15 15 15 15 14 14 13 13 12 12 11 11 10 10 10 10 10 9 9 9 8 8 8 7 7 6 5 4 4 4 4 4 4 5 5 5 5 5 6 7 7 8 9 10 11 12 12 13 14 14 15 17 20 21 21 22 24 26 26 25 24 25
29 28 28 28 27 26 24 24 25 24 21 20 20 17 14 14 15 16 17 17 17 16 16 16 15 15 15 14 14 14 13 13 12 12 11 11 11 10 10 10 10 9 9 8 8 8 7 7 5 4 4 4 4 4 4 4 4 5 5 5 6 7 7 8 8 9 9 11 11 12 13 13 13 15 17 19 21 22 23 24 25 25 25 25 25
29 29 29 26 24 26 27 26 24 22 21 21 20 17 14 14 16 17 17 17 17 17 16 16 15 15 15 14 14 14 13 13 12 12 12 11 11 11 10 10 10 9 9 8 8 7 7 6 5 5 4 4 4 4 3 3 3 4 4 5 6 7 8 8 8 9 9 10 10 11 12 13 13 16 17 18 19 21 23 25 25 26 26 26 26
27 28 28 25 24 25 26 25 23 22 21 21 20 18 15 15 17 17 17 17 17 17 16 16 15 15 15 14 14 14 13 13 13 13 12 12 11 11 11 10 10 9 9 8 8 7 6 6 6 5 4 4 4 4 3 2 2 4 4 6 6 7 7 8 8 9 9 9 10 11 12 13 14 16 17 18 19 21 22 24 25 26 27 27 26
26 27 26 24 24 25 24 24 23 22 21 21 20 18 15 16 17 17 17 17 17 17 16 16 15 15 15 15 14 14 13 13 13 13 13 12 12 11 11 10 10 10 9 8 7 7 6 6 5 4 5 5 5 6 5 5 4 4 4 6 7 7 7 8 8 9 9 9 9 11 12 13 15 17 17 18 20 21 23 23 24 25 26 27 26
26 26 26 25 25 24 23 23 23 21 21 21 20 19 16 16 17 17 18 17 17 17 17 16 16 16 16 15 15 14 13 13 15 15 14 13 12 11 11 10 10 9 9 8 7 6 6 6 5 5 7 7 7 7 6 6 6 6 5 6 6 6 7 8 8 8 10 9 9 11 12 13 15 17 17 18 20 21 22 23 23 25 25 24 24
26 25 26 26 26 26 25 24 22 21 21 20 20 20 17 17 17 18 18 18 17 17 17 17 16 16 16 16 15 14 13 15 18 18 16 14 13 11 11 11 10 9 9 8 7 6 5 5 4 3 3 4 5 6 6 6 6 6 6 7 8 8 7 7 7 8 9 9 9 11 12 13 15 15 16 18 19 20 22 22 23 25 25 22 22
26 26 26 26 26 27 26 24 22 21 21 21 21 20 18 17 18 18 18 18 18 18 18 17 17 16 16 16 16 14 14 16 20 20 18 16 15 12 11 10 10 9 9 8 8 7 6 4 3 1 1 3 3 2 3 3 4 5 5 5 7 9 9 8 8 9 9 9 10 11 12 13 14 15 16 17 18 20 21 21 22 23 24 23 23
25 26 26 26 26 26 24 23 22 22 22 21 21 20 19 19 19 18 18 18 18 18 18 17 17 16 16 16 16 14 14 17 22 23 20 18 16 13 10 10 10 9 9 9 9 9 8 6 4 2 3 3 3 4 5 5 5 6 5 5 5 6 8 9 9 9 9 9 10 11 11 12 13 14 15 16 18 21 21 21 22 23 24 25 26
25 25 26 26 26 25 24 24 23 22 22 21 21 21 20 20 19 18 18 18 18 18 18 17 17 16 16 16 15 15 16 17 22 24 22 20 18 13 9 10 10 9 9 9 8 9 8 7 6 5 5 3 3 4 4 5 6 7 6 7 7 5 5 7 8 8 9 8 9 11 11 11 13 15 16 16 17 20 21 22 23 23 25 27 26
25 26 26 26 26 25 23 24 23 23 22 21 21 21 21 21 20 19 18 18 18 17 17 17 17 16 16 16 14 15 16 16 21 25 23 21 19 11 8 11 11 9 10 9 8 8 7 7 6 6 5 4 5 6 6 5 5 6 6 6 6 7 5 4 6 7 8 8 8 10 11 12 14 17 17 16 17 19 20 21 21 23 25 25 24
26 27 27 26 25 25 23 23 23 23 23 22 21 22 21 21 20 19 18 17 16 16 16 16 16 16 16 15 14 14 15 16 20 24 23 22 20 11 7 11 10 9 10 9 8 8 7 7 6 6 6 5 6 6 7 6 5 5 6 5 5 6 6 6 9 10 10 10 10 11 13 14 15 17 18 17 18 20 20 19 20 22 23 23 22
26 25 25 24 23 24 24 24 23 23 22 22 22 21 21 21 20 18 18 18 16 15 15 15 15 16 16 15 14 14 15 17 21 24 23 23 22 13 7 9 10 9 10 9 8 8 8 8 7 5 6 7 8 5 6 6 4 6 6 5 6 6 5 7 11 12 13 14 13 14 16 16 15 16 17 17 20 21 19 19 21 22 22 21 20
25 24 23 23 22 23 24 24 24 23 22 22 22 21 20 20 19 18 18 18 17 16 15 14 14 14 15 15 14 14 16 18 21 23 23 23 22 15 9 8 9 9 10 10 9 8 8 10 9 6 4 7 9 7 5 6 4 6 6 6 7 7 5 8 11 11 13 15 14 15 16 16 16 16 16 18 20 20 19 20 22 22 22 21 20
25 23 22 23 22 23 23 23 23 23 22 22 21 21 20 19 18 18 18 18 17 16 15 15 15 15 14 15 15 14 15 19 22 23 24 24 22 16 10 8 9 9 9 9 9 8 8 9 12 10 7 6 8 7 5 6 5 5 7 8 8 7 7 10 11 12 13 14 14 14 15 14 15 15 16 17 18 19 20 21 22 21 22 22 22
22 21 21 22 22 22 23 23 23 22 22 21 21 20 19 18 17 17 16 16 16 15 14 14 15 15 15 15 15 14 14 19 23 24 24 23 22 18 12 9 10 10 9 9 9 8 8 7 10 13 12 10 9 7 5 5 5 5 6 8 7 7 9 12 12 13 14 13 13 14 13 13 14 14 15 16 17 19 21 21 21 21 22 22 23
22 20 20 22 22 22 23 24 25 25 24 24 22 21 19 18 18 18 16 16 16 15 14 14 14 14 15 15 16 15 14 17 23 25 24 23 23 21 14 8 8 10 10 9 9 9 9 9 8 11 12 11 9 7 5 5 5 4 6 8 8 9 11 13 13 14 13 12 12 13 12 13 13 13 14 16 18 21 22 21 21 22 21 21 22
22 22 21 21 21 23 26 28 27 26 25 25 24 22 19 18 19 18 16 15 15 15 14 14 13 13 14 14 16 16 14 15 21 25 25 24 24 23 17 9 6 8 8 9 10 9 8 9 10 11 11 10 9 8 6 6 5 6 7 9 10 10 11 13 14 13 11 11 12 12 12 12 12 13 15 17 19 21 21 22 23 22 21 21 21
21 21 21 21 22 25 29 30 29 28 28 27 26 24 22 20 19 19 17 15 15 15 15 14 13 14 14 14 15 16 14 14 18 23 26 25 24 24 21 14 9 8 7 7 9 10 8 8 10 11 10 10 10 8 7 7 7 8 8 8 10 10 12 14 15 13 10 11 11 11 11 11 11 13 15 17 19 20 21 23 24 23 22 21 21
20 20 21 21 23 26 29 30 30 30 29 29 28 26 23 21 20 19 17 16 15 14 15 15 15 14 15 15 15 15 15 14 17 22 25 26 25 24 24 20 15 12 10 6 4 7 8 8 9 10 9 10 11 9 9 9 9 10 10 10 11 12 14 16 15 11 10 10 10 10 10 10 11 12 15 17 18 20 21 22 23 24 24 23 22
20 19 20 21 22 24 27 30 30 30 30 30 29 25 22 20 19 18 17 17 16 15 15 16 15 15 15 15 15 15 15 14 16 21 24 25 26 25 24 23 21 18 16 11 6 6 7 7 8 8 9 10 12 11 11 11 11 11 11 12 13 14 17 17 13 10 10 10 9 9 10 10 10 13 15 16 18 19 21 22 22 23 24 25 25
20 18 18 19 20 22 25 28 28 28 28 26 24 22 20 20 20 19 19 18 17 16 16 16 16 16 15 15 15 16 15 14 15 20 24 26 26 25 24 24 23 22 21 19 14 11 8 8 9 9 10 12 12 13 13 13 13 14 15 15 15 16 17 14 9 8 10 10 8 9 9 10 11 13 15 16 17 19 21 22 22 23 24 25 26
21 18 17 18 20 22 25 27 25 24 23 21 20 19 20 20 20 20 20 19 18 17 17 17 17 17 16 16 16 16 17 16 15 19 25 27 27 27 26 24 23 22 22 23 22 18 13 11 12 13 13 14 15 15 16 16 16 17 17 18 19 18 16 13 10 10 10 9 8 8 9 10 11 12 14 15 16 19 21 21 21 23 23 24 26
21 19 19 19 20 21 25 26 24 21 21 21 20 19 20 21 20 19 19 19 18 17 17 18 18 17 17 17 17 16 17 18 17 19 25 28 26 24 24 23 22 22 21 20 20 19 14 12 14 14 13 14 15 15 16 17 18 18 17 16 16 16 15 15 15 14 11 9 8 9 9 10 11 12 13 13 15 18 20 20 20 21 22 24 25
21 20 19 20 20 20 23 24 22 19 20 20 19 19 19 20 19 18 18 20 20 19 18 18 18 18 17 17 18 18 18 19 20 20 23 27 26 22 20 20 19 20 20 17 14 14 13 12 11 11 12 12 14 14 15 16 17 17 16 14 12 12 13 13 13 12 10 8 8 9 9 10 11 12 12 13 15 17 19 19 19 20 21 23 24
21 21 19 19 19 20 22 22 19 18 20 20 18 17 18 19 18 17 18 21 21 19 18 18 18 17 16 16 18 18 17 18 21 21 22 25 25 22 19 19 18 16 17 17 14 13 13 13 11 11 12 13 13 13 14 14 14 13 12 11 11 11 12 12 11 10 9 8 8 9 10 10 11 11 11 13 15 17 18 18 18 18 19 22 23
21 19 17 17 19 21 21 21 19 18 19 20 19 18 17 18 19 18 18 20 22 21 20 19 19 18 17 15 16 18 17 16 20 23 22 21 23 23 21 20 19 16 16 18 18 14 12 11 11 11 12 12 13 13 14 13 13 12 12 12 12 12 12 12 12 11 10 9 9 10 10 10 11 11 12 13 15 16 17 17 17 18 19 21 22
19 17 16 19 22 23 21 20 19 18 19 19 19 18 18 17 18 18 17 19 22 23 22 21 20 21 20 17 16 18 19 17 17 21 23 21 23 24 22 19 19 18 16 17 18 15 12 12 11 11 12 12 13 14 14 14 13 13 13 13 14 13 13 13 12 11 10 10 10 10 10 10 11 11 12 13 14 15 16 16 16 16 18 20 21
18 18 19 22 24 22 19 20 21 19 19 20 20 18 18 18 18 17 17 17 20 23 24 23 22 22 22 20 17 17 20 19 17 18 22 22 23 24 22 20 20 20 18 17 16 14 14 14 13 13 13 13 13 14 15 14 14 13 14 14 14 14 13 13 12 12 12 12 11 11 11 11 11 11 12 12 13 14 14 15 15 16 17 19 19
20 20 21 25 25 22 20 20 21 19 19 20 20 19 19 18 18 18 17 17 18 21 23 25 25 23 22 22 20 17 18 20 20 18 19 21 23 24 25 22 20 20 19 17 15 14 14 14 14 13 13 14 14 15 14 14 14 14 14 14 14 13 13 13 12 12 12 11 11 12 12 11 10 11 12 12 13 13 14 14 14 15 17 18 18
19 21 24 25 24 22 21 20 20 19 19 19 20 19 18 18 17 18 19 19 18 18 19 22 25 25 23 22 22 19 17 18 20 19 18 19 23 25 26 23 20 19 19 17 15 14 14 14 14 14 14 14 15 14 14 14 14 14 14 14 14 13 13 13 12 12 12 12 12 12 11 11 11 12 13 13 13 13 13 14 14 15 17 17 16
18 21 24 23 20 19 19 19 19 19 19 19 19 18 17 17 17 17 18 19 18 17 17 17 20 24 25 23 22 20 18 17 19 18 18 20 24 26 24 20 17 17 18 17 16 15 15 15 15 15 15 15 15 15 15 15 15 15 14 14 13 13 13 12 12 11 11 11 11 11 11 11 12 13 13 14 14 13 13 14 14 15 16 16 16
17 19 21 20 19 19 19 18 19 20 20 19 18 17 16 17 17 17 17 17 18 18 17 16 16 20 24 24 23 22 20 18 17 18 19 21 24 24 21 17 16 16 17 17 18 18 17 17 17 16 17 16 15 15 15 15 15 15 14 14 14 13 13 12 11 11 11 12 13 14 13 14 15 16 16 15 14 13 13 14 15 15 16 17 16
17 19 22 21 21 21 19 18 20 22 21 19 17 17 17 17 17 17 16 16 16 16 17 17 17 19 21 23 25 26 24 21 19 19 21 22 23 24 21 17 16 18 18 17 18 18 18 18 18 18 18 18 17 16 16 16 16 15 14 14 14 14 14 13 12 13 14 14 15 15 15 15 17 17 16 14 13 13 14 14 14 16 17 16 16
17 20 24 24 22 20 18 18 20 22 21 18 17 18 18 17 17 17 17 16 15 16 17 18 18 18 18 21 25 27 26 23 21 21 22 24 26 26 24 19 17 18 18 18 18 18 18 18 18 18 18 18 18 17 17 17 16 16 15 15 14 14 13 13 13 14 14 14 14 14 14 14 14 13 13 13 14 14 14 14 15 17 17 16 16
17 19 24 25 22 18 17 17 18 20 20 19 17 17 18 18 18 17 16 16 16 16 17 19 20 19 18 20 26 28 26 23 22 21 21 24 27 27 24 21 19 19 19 18 17 17 18 18 18 18 18 18 17 17 17 17 17 16 15 15 15 14 14 14 14 14 14 14 14 14 14 14 13 13 13 14 14 14 15 16 17 17 16 16 17
17 18 23 24 21 17 17 17 17 18 19 19 17 17 17 17 17 16 16 17 18 17 17 18 19 19 19 22 27 29 26 23 23 22 22 23 26 26 24 22 21 20 20 19 18 18 18 18 17 17 17 17 17 17 17 17 17 16 16 16 15 15 15 14 15 15 15 15 15 15 14 14 14 14 15 15 15 16 17 17 17 16 16 17 18
17 20 23 23 20 18 17 17 17 18 18 18 17 17 16 16 16 16 17 18 19 18 18 18 18 18 20 25 28 28 25 23 22 23 23 23 24 26 26 25 24 22 21 20 19 19 19 19 17 16 16 17 17 18 18 18 17 17 16 16 15 15 15 15 15 16 16 15 15 15 15 15 15 15 16 17 17 17 17 16 16 17 17 17 17
18 19 20 20 20 18 17 16 17 17 17 17 17 17 16 16 15 16 16 17 18 18 17 18 17 16 18 23 26 26 24 22 21 22 23 23 23 24 26 25 24 23 22 21 21 21 20 19 18 17 17 18 18 18 18 18 18 17 17 16 16 16 16 16 16 16 15 15 15 16 16 17 16 16 17 17 17 18 17 17 17 17 17 17 17
16 17 18 19 19 18 16 16 16 16 16 17 17 16 15 16 15 15 16 17 18 17 17 17 16 14 16 20 24 25 23 21 20 21 22 22 22 23 24 25 26 25 23 22 22 21 19 18 18 18 19 19 19 18 18 18 18 18 19 18 18 18 18 17 17 16 16 16 16 16 16 17 17 17 17 17 17 17 17 17 16 17 17 18 17
14 14 16 18 18 17 16 16 15 15 16 16 16 15 14 14 14 15 17 17 16 16 16 15 15 15 16 20 24 25 22 20 20 21 21 22 22 22 21 22 25 25 24 22 21 20 20 20 21 20 21 21 20 18 18 18 18 18 18 19 19 19 19 18 18 18 18 18 18 18 18 18 18 18 18 17 17 17 17 18 18 19 19 19 18
15 14 16 17 17 17 16 15 15 15 16 16 16 16 15 15 15 15 16 14 13 14 16 16 15 16 16 18 20 21 20 19 19 20 19 18 18 18 17 18 20 21 21 20 20 20 21 21 21 21 22 22 21 20 19 18 19 19 19 20 20 20 19 19 18 18 19 20 21 20 19 19 18 18 18 19 18 19 20 21 21 21 21 20 19
15 13 14 15 14 15 15 14 15 15 15 16 17 16 16 17 16 14 13 14 15 16 17 18 17 17 17 17 17 18 19 19 18 19 19 18 16 15 15 16 18 19 19 19 19 19 19 20 21 22 22 22 23 23 23 21 21 21 21 20 20 20 19 19 18 17 18 18 19 19 19 19 19 18 18 19 19 18 19 20 19 19 19 19 19
12 11 11 12 12 12 13 13 13 12 12 12 15 16 16 17 16 14 14 17 19 18 18 17 17 17 17 17 16 16 17 18 18 20 22 22 21 19 18 18 19 18 17 17 16 16 17 19 21 23 25 26 26 27 26 24 22 22 22 21 21 20 19 19 18 17 16 17 17 16 17 18 19 19 20 21 21 20 20 20 19 19 18 18 17
14 12 12 12 12 12 12 12 13 14 14 14 15 16 15 15 16 17 17 18 19 18 17 17 17 17 17 17 15 15 15 17 18 20 22 22 22 21 20 19 18 17 16 16 16 17 18 20 23 25 27 28 28 29 29 27 25 24 23 23 22 21 21 21 20 19 20 20 18 15 14 15 18 22 24 25 25 25 24 23 21 21 20 19 18
14 13 13 13 12 12 13 13 14 15 15 15 15 16 15 15 16 17 18 18 17 17 17 16 16 16 15 15 15 15 15 16 17 18 21 22 21 21 20 18 17 17 18 19 20 21 22 24 25 26 27 27 27 28 28 27 25 25 24 23 22 22 22 22 21 22 24 24 22 19 18 19 21 23 25 25 24 24 23 22 22 21 19 18 18
11 12 12 12 11 11 12 13 13 14 14 15 15 15 16 16 16 16 17 17 17 17 16 14 14 14 14 14 15 15 16 15 15 16 19 21 22 21 20 18 17 18 19 21 22 23 25 26 26 26 26 27 28 28 26 24 23 23 22 22 22 22 23 23 24 25 26 26 25 24 25 24 24 24 25 25 23 21 20 20 20 20 19 18 18
Wind_Direction
165 170 176 172 169 169 168 168 166 165 162 157 152 150 150 159 166 165 165 166 164 160 156 154 152 150 149 147 145 143 142 140 137 134 131 131 131 131 132 131 124 120 118 115 113 111 106 100 95 87 80 83 79 73 70 61 59 57 48 44 40 25 7 349 329 322 327 329 327 328 333 335 335 337 337 335 334 333 332 330 329 330 329 327 327
166 169 175 172 168 168 168 168 167 163 158 154 152 152 156 165 166 164 166 165 162 160 157 154 154 152 151 150 148 147 145 143 140 139 137 135 134 135 136 133 127 125 127 123 117 112 108 102 95 88 80 76 72 69 65 56 56 55 44 36 27 15 2 347 331 320 321 326 328 329 335 337 335 337 339 337 335 333 332 332 331 331 330 328 325
170 168 171 171 170 168 168 168 164 157 153 153 153 152 156 162 165 165 165 164 162 160 157 155 155 154 152 151 150 149 147 145 144 143 142 140 139 139 137 134 132 134 133 127 122 116 109 104 97 90 85 80 73 65 56 49 49 45 34 26 13 359 349 336 324 319 319 322 327 331 335 336 335 336 338 337 335 334 332 332 331 330 330 329 326
171 167 169 170 168 169 168 164 160 155 152 154 155 155 158 162 165 167 165 162 161 159 157 157 156 154 154 154 153 152 150 148 148 147 146 144 142 140 137 136 138 138 134 127 123 117 111 106 102 98 93 84 75 66 56 46 43 37 20 9 3 350 336 322 316 316 317 319 325 330 331 333 333 335 337 338 336 335 333 331 330 329 330 330 328
171 166 166 167 167 169 165 159 159 158 154 156 158 157 161 165 167 168 166 163 162 160 159 159 158 157 157 157 156 155 153 152 151 150 148 146 143 140 139 140 140 136 131 126 120 115 111 109 104 100 96 85 74 64 52 42 37 31 16 1 355 343 327 318 316 315 316 319 323 328 330 331 332 335 339 339 336 335 334 331 329 329 329 330 330
170 166 165 167 166 166 161 157 160 160 156 159 159 159 163 168 169 170 167 164 162 161 162 161 160 160 160 159 158 157 156 155 154 152 149 146 142 140 140 140 138 134 130 124 119 114 111 107 101 96 90 82 75 62 51 43 30 24 12 355 348 337 322 317 319 318 320 322 324 329 334 335 334 337 341 341 338 336 335 332 329 330 330 331 332
168 169 169 168 164 164 162 160 161 160 159 161 161 163 167 168 170 171 167 166 164 164 164 163 162 163 161 162 161 158 157 157 155 153 150 147 143 142 142 140 138 134 130 124 118 113 109 105 99 92 84 76 67 52 40 34 21 18 9 351 341 332 324 322 324 325 326 326 329 335 337 338 340 340 339 339 339 337 336 333 329 330 332 331 331
163 167 170 166 162 163 163 162 163 162 161 162 163 167 170 169 172 172 168 167 166 166 166 163 164 164 162 162 161 160 160 160 159 157 153 150 147 145 145 142 139 134 129 124 118 113 110 102 93 90 96 106 97 78 75 68 29 13 6 353 340 333 330 329 329 333 334 331 334 339 338 340 344 342 339 341 341 339 336 332 327 327 331 330 330
165 165 169 166 162 162 160 162 168 165 160 161 163 167 171 172 175 173 169 169 168 167 167 165 165 165 163 163 161 161 163 162 162 160 156 153 151 149 148 145 141 137 132 128 121 117 111 98 99 114 125 126 111 95 99 104 78 40 12 355 345 339 337 337 339 341 338 335 341 344 341 345 347 344 342 344 341 335 332 330 326 326 328 327 329
169 166 167 165 163 162 162 167 170 163 161 163 164 168 172 174 176 175 171 170 169 168 168 168 168 167 165 164 163 163 166 166 166 164 159 156 153 150 149 147 144 141 137 133 127 121 112 107 116 117 100 87 77 73 80 90 87 73 53 34 17 1 346 341 345 346 339 338 346 347 344 347 347 344 343 342 337 331 330 330 328 327 328 327 328
169 165 163 162 163 164 167 170 167 161 163 165 165 170 176 176 178 176 172 171 170 169 170 171 171 170 168 167 167 166 169 172 171 166 160 157 153 151 151 149 146 145 142 139 134 126 121 123 128 104 66 50 46 45 48 65 81 77 62 51 42 31 13 356 350 344 339 342 348 350 348 346 343 343 343 340 335 332 331 330 329 328 329 329 329
166 163 163 162 163 167 169 167 163 162 166 166 166 172 178 179 180 178 173 173 171 171 173 173 172 172 171 170 169 168 172 178 175 169 163 159 154 152 153 151 150 150 149 146 145 142 143 150 157 183 243 229 239 297 342 19 42 40 35 27 22 23 20 14 6 353 341 338 344 350 349 342 340 342 342 338 333 332 330 329 330 327 325 327 327
162 161 164 164 164 169 169 163 161 164 166 166 167 173 179 181 181 179 173 172 172 173 175 175 174 174 173 172 172 170 173 181 180 174 167 161 155 152 155 158 157 158 157 156 157 157 158 164 172 190 197 202 224 249 266 283 311 331 334 323 332 357 6 7 7 360 348 336 336 344 344 340 338 336 336 333 330 330 330 328 327 325 324 325 325
164 165 168 167 168 172 168 159 160 163 164 164 166 174 182 183 180 177 173 172 173 175 176 176 175 176 175 175 174 172 174 183 184 178 171 164 158 152 155 163 163 162 164 166 166 165 167 172 177 187 193 207 243 244 248 266 284 294 289 280 276 285 326 350 353 347 341 330 327 334 335 333 330 326 326 327 327 330 328 322 321 323 323 322 322
166 169 172 171 171 171 164 158 159 160 162 164 165 171 181 181 178 176 174 174 175 175 177 177 177 177 177 176 175 173 177 185 186 182 177 171 164 154 154 167 169 170 172 173 171 172 177 181 182 184 186 211 243 232 225 241 264 280 278 269 263 254 257 303 325 331 334 326 320 324 328 330 330 329 327 323 324 328 324 317 319 325 324 324 326
170 172 174 172 169 167 161 158 159 160 163 166 166 170 175 176 176 175 172 173 174 175 177 178 177 177 177 178 176 174 178 185 186 183 181 177 173 166 164 174 178 179 177 179 180 180 183 184 188 191 185 207 244 229 205 212 244 280 281 273 275 261 249 282 309 324 335 331 325 328 332 333 333 335 335 329 330 332 325 321 330 333 329 330 332
172 172 172 168 164 164 162 160 159 162 165 167 169 171 172 174 175 173 169 170 172 173 176 179 180 177 176 179 177 172 176 184 185 184 183 181 179 180 185 185 187 186 184 187 188 187 188 189 194 198 193 212 239 230 194 202 250 291 284 275 282 275 272 303 312 319 326 326 327 328 326 327 329 334 339 340 339 338 330 330 338 338 333 334 334
175 172 170 167 164 163 163 161 161 163 166 168 169 170 171 174 175 170 168 170 170 172 175 178 179 177 178 182 178 170 174 183 187 187 186 183 182 188 198 195 194 195 192 191 193 195 200 204 207 201 188 217 236 231 203 210 260 299 289 280 285 282 296 317 313 315 320 321 323 323 322 327 333 337 342 344 344 346 343 339 339 337 336 335 333
176 171 167 166 165 163 163 162 161 163 167 168 167 168 169 171 171 168 167 166 166 169 172 174 178 180 183 186 183 175 177 186 191 191 189 187 187 192 202 201 198 201 199 194 196 200 205 216 220 213 200 213 230 230 218 225 260 298 293 287 289 294 313 317 309 311 315 315 318 322 325 331 336 337 341 344 347 352 349 342 338 338 337 334 332
169 167 165 164 164 163 161 160 161 162 163 162 159 161 164 165 166 165 162 160 162 167 170 173 178 182 183 185 185 183 182 187 193 193 192 192 191 192 201 207 202 201 204 200 200 204 206 217 227 222 217 220 226 228 233 239 250 275 289 296 300 302 310 311 306 305 304 306 315 322 326 333 336 339 343 346 349 350 345 342 341 340 337 333 332
174 174 169 163 161 161 162 164 166 167 167 164 159 157 161 165 166 164 161 161 164 168 171 173 177 180 181 183 186 187 185 188 194 195 194 195 195 194 202 220 209 198 201 203 204 210 210 210 224 230 227 225 225 227 241 251 252 260 280 293 295 294 303 308 304 300 299 307 319 325 330 336 340 344 346 348 349 346 343 346 347 343 338 335 333
178 177 171 162 159 164 169 171 170 168 170 169 164 160 164 166 166 166 167 166 165 166 170 174 176 178 182 185 187 188 187 189 196 198 196 197 199 198 202 217 207 189 197 206 209 213 210 207 220 231 233 231 228 230 242 253 260 261 265 276 285 294 307 308 298 295 304 316 323 327 333 338 343 346 347 348 349 346 344 347 348 345 342 339 335
169 170 167 160 160 169 174 174 172 170 170 170 166 165 167 167 167 169 168 163 161 164 170 177 180 181 184 187 188 189 189 191 199 202 199 199 203 203 205 211 205 193 200 210 213 217 215 209 213 220 230 236 235 238 247 254 263 267 266 274 287 297 304 298 287 288 306 318 320 327 334 339 344 344 345 348 347 344 345 347 345 345 345 341 336
171 168 165 162 164 170 175 176 175 175 174 173 171 168 168 169 170 170 166 163 165 171 177 182 185 186 188 189 188 188 187 191 202 205 202 202 206 208 210 215 215 209 206 208 217 220 214 203 200 207 225 240 240 242 250 254 259 266 271 279 287 292 293 287 282 289 306 314 318 326 332 338 342 339 341 346 346 344 347 347 345 345 344 340 338
179 171 164 162 162 167 173 175 175 176 177 177 175 172 169 171 174 174 174 178 181 183 184 185 187 190 191 189 186 185 184 186 197 204 204 204 208 211 214 218 220 218 214 216 233 234 212 194 195 209 229 240 242 246 254 259 263 266 270 275 279 283 281 277 279 294 307 311 317 322 326 334 338 334 332 338 344 347 349 348 346 348 346 343 342
183 174 162 158 157 161 167 171 173 176 177 177 176 175 174 177 181 183 185 188 189 188 187 188 191 194 192 187 183 182 182 182 189 198 203 205 208 213 215 217 220 223 223 223 227 232 229 213 207 219 233 239 242 248 254 260 264 266 268 269 270 273 272 271 282 304 304 303 308 315 323 331 331 327 328 336 346 351 351 349 347 349 349 345 344
186 179 163 154 155 162 166 168 169 172 174 174 176 179 181 183 186 187 187 188 189 191 191 191 192 191 188 185 183 182 185 186 184 191 198 203 208 213 216 217 221 225 227 226 225 228 235 231 222 225 234 238 243 249 251 254 257 260 262 261 258 257 258 262 278 293 292 293 299 310 320 324 324 326 330 338 347 349 349 350 348 347 349 347 346
187 183 171 160 160 165 168 169 168 169 174 179 181 182 182 183 186 190 190 189 191 194 194 192 190 188 185 184 184 184 188 191 189 191 197 201 203 207 212 216 220 222 222 222 222 225 232 235 229 228 232 238 244 250 251 252 251 251 253 255 252 251 253 258 262 263 265 278 296 309 314 317 322 326 328 336 345 346 346 349 347 345 348 349 350
182 179 170 161 160 161 163 165 166 167 172 176 179 182 183 184 189 195 196 196 198 199 194 189 187 187 187 188 188 188 191 195 197 199 201 200 197 197 202 205 208 214 215 212 211 217 223 222 219 217 219 228 238 243 247 249 247 244 245 249 253 258 264 267 264 260 263 278 295 302 306 312 318 321 324 335 344 343 343 346 347 345 348 351 351
180 176 166 158 156 154 155 159 161 164 170 174 178 183 186 189 194 199 199 199 200 198 192 188 186 186 190 194 194 193 196 200 199 199 203 203 199 195 198 199 197 204 210 204 198 210 219 216 212 213 217 225 233 239 245 250 252 253 253 253 256 262 267 271 274 275 276 281 285 291 298 305 310 315 324 333 337 337 341 346 347 347 349 350 349
176 172 163 159 158 156 157 161 164 168 174 178 178 177 178 185 194 197 196 196 197 195 194 196 195 191 191 194 197 199 204 207 202 200 203 205 200 196 200 203 200 200 205 201 199 210 221 217 215 219 222 228 235 240 245 250 253 258 262 262 263 264 263 265 270 272 273 276 277 282 289 296 302 310 318 323 325 332 341 344 343 344 348 348 346
169 162 157 160 164 163 163 165 169 174 177 177 177 174 173 177 186 192 194 198 202 204 206 208 205 201 198 196 195 199 203 204 203 202 203 204 200 198 202 205 200 199 200 198 200 212 222 220 221 226 227 233 239 241 245 249 250 251 255 258 260 261 259 260 264 265 268 274 277 280 285 289 294 299 305 311 318 327 336 338 336 340 345 345 342
165 160 160 163 167 169 168 169 175 180 179 178 180 180 179 179 180 183 187 194 202 208 212 213 211 210 209 206 200 199 202 202 201 202 204 204 202 199 199 198 197 201 204 202 204 213 219 219 223 226 227 234 239 239 241 245 247 249 252 253 255 257 257 258 259 259 262 265 266 270 275 278 284 293 301 308 313 318 327 332 332 337 343 340 337
175 170 169 167 169 173 174 174 178 182 180 179 180 182 184 184 179 175 176 183 194 203 209 211 212 212 214 211 208 205 206 205 204 204 204 205 203 199 197 196 199 205 208 208 210 216 220 223 226 227 228 234 238 239 241 243 245 249 251 253 256 258 259 259 259 259 262 264 263 265 271 276 286 296 300 303 307 312 320 326 330 335 337 334 332
176 171 170 170 170 172 173 173 177 178 176 177 180 184 188 186 179 177 178 183 189 196 203 208 211 211 211 209 207 208 209 209 208 207 205 203 201 199 198 200 203 207 209 211 215 220 224 228 230 231 233 236 237 239 241 243 246 249 250 251 255 256 257 258 259 261 267 270 270 272 277 282 287 291 293 296 301 306 310 316 322 327 328 326 326
170 166 168 168 165 163 165 169 175 177 178 179 181 184 185 182 179 179 182 186 190 195 199 203 208 210 211 209 207 207 208 209 209 208 204 199 196 196 198 200 204 209 212 215 220 224 227 231 233 234 236 238 238 238 240 242 244 246 248 249 251 254 255 257 259 263 268 270 272 275 278 281 283 285 286 288 291 294 301 310 316 318 319 318 316
167 164 167 169 167 165 165 169 176 180 179 177 177 179 182 183 183 184 187 191 195 198 200 197 193 198 205 208 207 205 204 205 208 208 205 200 199 200 202 203 206 211 214 218 221 224 228 232 235 237 238 239 239 237 238 242 243 243 245 247 248 251 256 259 264 271 274 276 278 277 275 274 274 273 273 276 282 292 302 308 311 311 312 311 309
172 171 172 173 173 172 170 172 178 182 180 177 179 182 184 185 188 191 193 194 194 197 203 201 191 188 193 200 204 205 202 200 201 202 202 203 204 206 208 209 212 216 220 222 222 224 229 232 233 235 237 238 239 239 240 242 243 242 243 245 246 249 252 255 260 266 267 268 269 267 265 264 263 263 267 277 289 296 299 302 308 310 309 309 307
179 180 181 180 177 176 177 176 178 180 181 181 184 184 183 185 191 195 197 197 197 202 210 211 206 201 195 192 194 198 198 198 199 199 201 206 210 212 212 214 217 220 223 225 224 225 230 233 232 233 234 235 236 238 239 240 241 241 242 244 247 249 250 253 258 262 262 263 264 263 263 264 265 269 278 285 288 291 295 302 308 306 303 304 306
177 177 183 184 179 176 179 179 178 180 183 185 185 184 185 190 196 197 199 202 204 209 215 219 218 216 207 193 188 189 191 196 200 200 201 206 212 215 216 217 221 224 226 227 229 231 233 234 232 232 234 234 235 237 238 239 240 241 242 244 247 250 252 255 260 263 265 268 269 269 269 270 272 276 280 281 285 293 298 301 301 297 296 303 310
179 171 177 182 180 177 181 183 182 182 183 185 188 188 189 194 198 198 201 208 211 213 216 220 223 223 216 201 193 191 192 196 200 202 203 206 210 214 216 218 222 226 227 229 233 237 240 239 235 233 234 236 236 237 239 239 240 242 243 245 247 250 254 256 258 261 264 266 267 268 270 271 273 275 277 282 289 293 294 293 294 296 300 305 309
180 167 170 176 178 179 182 183 183 184 183 184 188 191 191 194 198 200 205 212 216 216 216 220 226 224 210 197 194 194 197 200 201 202 203 203 205 210 215 217 220 224 227 229 234 239 242 242 240 237 237 239 239 239 239 240 241 243 245 246 248 250 253 257 260 261 262 262 262 262 262 263 266 270 274 279 284 285 287 290 293 298 302 303 303
174 164 167 174 179 183 185 182 182 184 184 184 187 191 191 192 195 199 205 213 219 221 220 221 224 213 190 185 193 200 202 205 206 204 204 204 205 208 213 217 218 222 226 231 236 240 242 242 241 239 239 241 241 240 239 240 242 246 248 250 252 252 253 256 258 261 262 262 262 262 261 260 263 267 270 274 278 282 285 288 289 291 295 297 297
168 161 168 177 182 185 185 184 183 183 181 182 184 186 189 194 197 201 208 213 216 217 216 215 217 206 181 180 194 203 205 208 211 208 206 207 209 210 212 215 219 223 227 232 236 239 241 244 244 241 239 240 241 241 241 241 243 245 246 248 251 252 253 253 253 255 259 261 264 267 267 266 268 272 273 273 274 277 280 283 285 287 291 292 290
177 170 174 179 183 185 186 185 183 178 175 177 180 182 188 196 200 206 212 213 211 211 210 211 214 209 189 181 190 199 205 211 214 212 209 212 215 214 209 209 215 222 225 228 231 233 237 241 243 241 239 238 238 241 244 245 246 247 247 249 249 250 252 252 252 252 253 256 261 267 270 270 270 273 276 277 278 279 283 287 290 292 294 293 289
192 185 181 181 183 186 185 183 179 175 172 175 179 182 187 192 196 203 208 204 196 198 206 212 217 214 202 190 190 196 205 211 213 213 211 211 212 209 202 202 212 220 222 224 228 231 233 236 238 239 239 238 237 240 245 250 251 252 253 254 254 253 253 253 253 253 253 254 256 260 267 271 272 272 274 277 277 276 279 282 284 286 287 287 285
202 198 192 186 183 182 182 181 180 178 176 177 180 182 186 191 194 194 194 194 195 199 206 213 217 214 207 199 195 197 202 206 207 207 205 203 205 207 206 208 216 221 224 228 230 231 231 233 235 236 237 237 238 242 247 252 254 255 254 254 254 255 254 254 254 255 257 257 256 254 257 264 269 271 273 274 272 272 274 276 277 279 280 279 279
200 197 193 190 186 184 182 180 177 173 172 178 185 188 188 188 187 184 186 197 206 209 207 209 212 211 207 205 202 199 199 199 200 204 207 210 214 219 220 219 219 222 226 231 232 230 230 233 234 236 239 241 243 246 250 252 253 254 256 257 256 256 257 258 257 258 261 266 266 260 253 255 261 267 271 272 271 273 275 274 275 278 279 278 279
192 193 193 192 190 186 180 175 171 172 176 184 189 191 190 188 188 191 196 201 205 206 207 210 214 216 215 211 205 200 198 197 199 204 209 211 213 216 218 219 218 217 219 226 230 232 234 236 238 242 246 248 250 254 255 254 253 254 256 258 258 259 261 262 261 260 262 265 266 260 251 250 257 265 271 274 276 277 276 274 274 276 278 279 281
194 195 196 194 191 185 180 177 178 181 187 191 191 191 193 196 197 200 202 201 201 205 209 211 210 209 207 204 203 205 207 206 204 205 208 209 210 212 214 213 211 211 219 229 235 237 239 241 244 247 250 251 253 256 257 256 255 254 255 256 258 260 262 263 262 262 262 261 259 255 254 255 260 264 269 273 276 276 275 275 275 275 276 277 279
197 199 198 194 190 186 180 178 181 186 191 196 196 194 195 199 202 203 203 205 208 210 207 201 196 196 200 204 207 210 213 213 209 208 208 208 209 211 212 210 208 213 225 235 240 241 242 244 246 250 253 254 254 254 254 253 252 252 253 255 258 261 264 264 264 264 264 262 260 259 261 262 264 265 267 268 267 265 265 269 272 274 274 275 276
Height
787 790 793 796 798 800 803 805 808 811 813 815 816 819 821 823 825 827 828 830 831 833 834 835 837 838 840 841 842 844 845 845 846 847 848 849 850 851 852 852 853 853 853 854 854 855 855 856 856 856 856 856 857 856 856 856 855 855 855 854 854 854 854 853 852 850 848 847 846 844 842 841 839 837 835 832 830 827 824 822 819 816 814 810 806
785 788 791 794 796 798 801 804 807 810 811 814 816 818 821 823 824 826 827 829 831 832 834 835 837 838 839 841 842 844 845 845 846 847 848 849 850 851 852 853 853 854 854 855 855 855 856 856 857 857 857 857 857 857 857 856 856 855 855 855 855 855 854 854 853 851 849 847 846 844 842 841 838 836 834 832 830 827 824 821 819 816 813 810 806
783 786 789 792 795 797 800 804 806 808 810 813 815 817 820 822 823 825 827 829 830 832 833 835 836 838 839 841 842 843 844 845 847 848 849 850 851 852 852 853 854 855 855 856 856 856 856 857 857 858 858 858 858 858 857 857 857 856 856 856 855 855 855 855 853 852 849 847 845 844 842 840 838 836 835 832 830 827 824 821 818 815 813 809 805
781 784 787 791 793 796 799 802 804 806 809 812 814 817 819 821 823 825 826 828 830 832 833 835 836 838 839 840 842 843 844 845 847 848 849 850 851 852 852 853 854 855 856 856 856 857 857 858 858 858 859 859 858 858 858 858 857 857 857 856 856 856 855 855 854 852 850 847 845 844 842 840 838 837 835 832 830 828 825 821 818 815 812 809 805
779 782 785 789 792 795 798 800 802 804 808 811 813 816 818 820 822 824 825 827 829 831 833 834 836 837 839 840 841 843 844 846 847 848 849 850 851 852 853 854 855 856 856 857 857 857 858 858 859 859 860 860 859 859 859 858 858 858 857 857 857 856 856 855 854 852 850 848 845 844 842 840 839 837 835 833 830 827 825 821 817 814 810 808 805
777 780 783 787 790 793 795 797 800 803 806 810 812 815 817 819 821 823 825 827 828 830 832 834 835 837 838 840 841 843 844 846 847 848 849 850 851 852 853 854 855 856 857 857 857 858 858 859 859 860 860 860 860 860 860 859 859 859 858 858 857 857 856 855 853 852 850 848 845 844 842 840 839 837 835 833 830 827 824 821 817 813 810 806 804
775 778 782 785 788 790 792 795 799 803 806 809 811 814 816 818 820 822 824 826 828 830 831 833 835 836 838 839 841 842 844 845 847 848 849 850 851 852 853 855 856 856 857 858 858 859 859 860 860 860 861 860 860 860 860 860 860 860 859 859 858 858 856 855 853 851 849 848 846 844 842 840 839 837 835 834 831 828 825 820 816 812 809 806 803
773 777 780 783 785 788 791 795 799 802 805 807 810 813 815 818 820 822 824 826 827 829 830 832 834 835 837 839 840 842 844 845 847 848 849 850 851 853 854 855 856 856 857 858 858 859 860 860 861 860 860 860 860 860 859 860 860 860 860 859 859 858 857 855 853 851 849 848 846 844 842 841 839 838 836 834 831 829 826 822 817 812 809 805 802
772 775 778 781 784 787 791 795 799 801 804 806 809 812 814 817 820 821 823 825 826 828 830 831 833 835 837 838 840 842 843 845 846 847 849 850 851 853 854 855 856 857 857 858 859 860 861 861 861 861 860 860 860 860 859 860 860 860 860 860 859 858 857 855 854 852 850 848 846 845 843 841 840 838 836 834 832 829 826 823 818 813 810 806 802
770 773 777 780 783 787 790 794 798 800 802 805 808 811 814 816 819 821 822 824 825 827 829 831 832 834 836 837 839 841 843 844 845 847 848 850 851 853 854 855 856 857 857 859 860 860 861 861 861 862 862 861 861 861 860 860 860 860 860 860 859 858 857 856 854 853 851 848 847 845 843 842 841 839 837 835 834 830 827 823 819 814 810 806 801
769 772 775 778 782 786 790 793 796 798 801 804 807 810 813 815 818 820 821 823 824 826 828 830 831 833 835 837 838 840 842 843 844 846 848 849 851 852 853 854 855 856 857 858 860 861 862 863 863 863 863 863 862 862 861 861 861 860 860 860 859 858 858 857 855 854 852 849 847 846 844 843 842 840 838 836 834 831 827 824 819 815 810 806 801
768 770 774 778 781 784 788 791 793 797 800 803 806 809 811 814 817 819 820 822 823 825 827 829 830 832 834 836 838 840 841 841 844 846 847 848 850 851 853 854 855 856 857 857 858 860 862 863 864 864 864 863 863 863 862 862 861 861 860 860 859 858 857 856 855 854 852 850 848 846 845 844 842 840 839 837 834 831 828 824 821 816 812 807 803
766 769 773 777 779 783 787 788 791 795 798 801 804 807 810 814 816 817 819 820 822 824 826 828 829 831 833 835 837 838 839 840 843 845 847 848 849 850 852 853 854 855 855 856 856 857 858 861 863 864 864 863 863 863 863 862 861 861 860 859 859 858 857 856 855 854 852 850 849 847 846 844 843 841 839 837 834 831 828 824 821 817 813 808 804
765 768 772 775 778 782 785 786 790 794 797 800 803 806 809 812 814 816 818 819 821 823 825 826 828 830 832 834 836 837 838 839 842 844 846 847 848 849 851 852 853 854 854 855 856 856 856 858 860 862 863 863 863 863 863 862 861 860 859 858 857 857 856 856 854 853 852 850 849 847 846 845 843 841 839 837 834 831 828 824 821 818 813 809 805
763 767 770 774 777 781 782 784 788 792 795 798 801 805 808 811 813 814 816 818 820 821 824 825 827 829 831 833 835 836 837 839 841 843 845 847 848 848 850 851 852 853 854 854 855 856 856 857 858 859 861 862 862 861 861 861 861 860 859 858 857 856 856 855 854 853 851 850 849 847 845 844 842 840 838 836 834 831 828 825 821 818 813 809 804
762 766 769 772 775 777 780 783 786 790 793 797 800 803 806 808 811 813 814 817 819 821 823 825 826 828 830 832 834 835 836 838 840 842 844 846 847 848 849 851 851 852 853 854 855 856 856 857 857 858 859 860 860 860 861 860 860 859 859 857 857 856 855 854 853 852 850 849 847 846 844 842 841 838 836 834 832 830 827 824 821 818 813 808 804
760 764 767 770 772 775 777 780 784 788 791 795 798 801 804 807 809 811 813 816 819 821 823 825 826 827 828 830 832 833 835 837 839 841 843 845 846 847 849 850 851 852 853 854 854 855 856 856 857 858 859 859 859 860 860 860 859 859 858 857 856 855 854 853 852 850 849 847 845 844 842 840 838 836 835 833 831 828 826 823 820 817 813 809 805
758 762 765 767 770 773 776 779 782 786 790 793 796 799 802 805 808 810 812 815 817 820 822 824 826 827 828 830 831 832 834 836 838 840 842 843 845 847 849 850 851 852 852 853 854 855 855 856 857 858 858 858 858 859 859 859 858 858 857 856 855 854 854 853 851 850 848 846 844 842 840 838 836 835 833 832 831 829 827 824 821 818 814 810 806
756 759 762 765 769 771 774 777 781 784 788 791 794 798 801 804 807 809 811 814 816 819 821 823 825 827 829 830 831 832 833 835 837 839 840 842 844 846 848 849 850 851 852 852 853 854 854 855 856 857 857 857 857 858 858 858 858 857 857 856 854 853 853 852 851 849 847 845 843 841 839 837 836 835 833 832 831 829 828 825 822 819 815 812 808
755 758 761 764 768 770 773 776 780 783 787 790 793 797 800 803 806 808 811 813 815 818 820 822 824 826 827 829 830 832 832 833 836 838 840 842 844 845 847 848 848 850 851 851 852 853 854 854 855 856 856 856 857 857 858 858 857 857 856 856 854 853 852 851 850 848 846 844 842 840 838 837 835 834 833 832 830 829 827 825 822 820 816 813 809
753 758 761 763 766 769 772 775 778 781 785 789 792 795 799 802 805 807 809 811 814 816 819 821 823 824 826 827 829 831 832 832 834 837 839 841 843 844 845 846 847 848 849 850 851 851 852 853 854 855 856 856 857 857 857 857 856 856 856 855 854 853 852 850 849 847 845 843 841 839 837 836 835 834 832 831 829 828 825 823 822 820 817 814 810
753 757 760 762 765 768 771 773 777 780 784 787 791 794 798 801 803 806 808 810 812 815 817 820 821 823 825 826 828 830 831 831 833 835 838 840 842 843 844 845 845 846 848 849 849 850 850 850 851 853 854 856 856 856 856 856 856 855 855 854 854 853 852 850 848 846 844 842 840 838 837 835 834 833 832 830 828 827 825 822 821 819 816 814 811
753 756 759 761 763 766 769 772 775 779 782 786 789 792 796 799 802 805 807 809 811 813 816 818 820 822 824 825 827 828 830 831 832 834 836 838 840 842 842 843 844 846 846 847 848 849 849 848 848 850 853 854 855 855 855 855 855 854 854 853 853 852 851 849 847 845 843 841 840 838 836 835 834 833 831 829 828 826 824 822 820 817 815 813 811
752 754 757 759 761 765 768 771 774 778 781 785 788 791 794 798 800 804 806 808 810 812 815 817 819 820 822 823 825 826 828 829 830 832 835 837 839 840 841 843 844 845 845 846 847 848 847 846 846 848 851 853 854 854 854 854 853 853 853 853 852 851 849 848 846 844 843 841 839 837 836 835 834 832 830 829 827 825 823 822 820 817 814 811 808
751 753 755 757 760 763 767 770 774 777 780 783 786 790 793 796 799 802 804 806 809 810 812 814 816 818 820 821 822 824 826 828 829 831 833 835 837 838 840 841 843 844 845 845 846 846 846 845 845 847 849 851 852 853 853 852 852 852 852 852 851 850 848 846 844 843 842 840 838 837 835 834 833 832 830 828 826 824 822 821 819 817 814 811 807
751 753 754 756 759 762 765 770 773 776 780 783 786 789 792 794 797 800 802 804 806 808 810 812 814 815 817 818 820 822 824 826 827 829 831 833 835 836 838 839 841 843 844 844 845 845 845 845 844 845 847 849 850 851 851 851 850 850 850 850 849 848 846 845 843 842 841 839 837 836 835 834 833 831 829 827 825 823 822 820 818 816 814 810 806
749 752 753 755 758 761 764 768 772 776 779 782 785 788 790 793 795 797 799 801 803 805 807 809 810 812 814 816 818 820 821 823 825 826 828 830 832 834 836 837 839 840 841 842 843 844 844 844 843 844 846 847 848 849 849 848 848 848 848 847 846 845 844 843 842 841 840 838 836 835 834 833 832 830 829 827 825 824 822 820 818 816 813 810 806
748 751 752 754 757 761 764 767 771 774 778 781 784 786 788 790 792 794 796 798 800 802 804 805 807 809 811 813 815 817 819 820 822 822 824 826 829 831 833 835 836 837 839 840 841 843 844 843 843 843 844 845 846 847 847 846 845 845 845 844 843 842 842 841 840 839 838 837 835 834 834 832 831 830 828 826 825 824 822 820 818 816 813 810 806
747 749 751 753 756 759 763 766 770 773 776 779 782 784 786 788 790 792 794 796 798 800 801 803 805 807 809 811 812 813 815 816 818 819 821 823 826 828 830 832 833 835 836 838 840 842 843 842 841 841 842 843 844 844 844 843 842 842 841 841 840 840 839 838 837 837 836 835 834 834 833 832 831 829 828 826 825 824 822 819 818 815 813 810 806
746 748 750 752 755 758 761 765 768 772 775 777 780 783 785 787 789 791 793 794 796 798 800 801 803 805 807 809 810 811 812 813 815 817 819 821 824 826 828 830 831 833 835 837 839 840 841 840 839 839 839 840 841 841 841 840 840 839 838 838 838 838 837 837 836 835 835 834 834 833 832 831 830 828 827 826 825 823 821 819 817 815 813 810 807
744 747 749 751 754 757 760 764 767 771 774 776 778 781 783 786 788 789 791 793 794 797 799 801 802 804 806 807 808 810 811 812 813 815 817 819 823 825 826 828 829 831 833 835 837 838 838 838 837 837 837 838 838 838 839 838 838 837 837 837 836 836 836 835 834 834 833 833 832 832 831 830 829 828 827 826 824 822 820 818 817 815 812 810 808
742 744 747 750 752 756 759 762 765 769 772 774 776 778 780 783 786 788 790 792 794 796 798 799 801 802 804 805 807 808 809 810 812 814 816 818 820 823 824 826 828 830 831 833 834 835 836 836 835 835 835 835 836 836 836 836 836 836 835 835 834 834 833 833 833 832 832 831 831 830 829 829 828 827 826 825 823 821 819 818 816 814 812 810 808
739 742 745 748 751 755 757 760 763 766 768 771 773 775 777 780 783 785 788 791 793 795 796 798 799 800 802 804 805 806 807 809 811 813 815 817 819 821 823 825 827 828 830 831 832 832 833 833 832 832 833 833 833 833 834 834 834 833 833 832 832 831 831 831 830 830 830 829 829 828 828 827 826 825 824 823 822 820 819 817 815 813 811 810 808
736 739 742 745 748 752 754 757 760 763 765 768 770 772 775 777 779 782 785 788 791 793 794 795 797 799 800 802 804 805 806 808 810 812 813 816 818 820 822 824 825 827 828 829 830 830 830 830 830 830 830 830 830 831 831 831 831 831 830 830 829 829 828 828 828 828 827 827 826 826 825 825 824 824 823 822 821 819 818 816 814 812 811 810 808
734 736 739 742 745 748 751 754 757 760 763 765 768 770 772 774 776 779 781 784 787 789 791 793 794 796 798 800 802 804 806 807 809 811 812 814 816 818 820 822 824 825 826 827 828 828 828 828 828 828 827 827 827 828 828 828 828 828 828 827 827 826 826 826 825 825 825 825 824 824 823 823 823 822 822 820 819 818 817 815 814 812 811 809 807
735 737 739 741 744 746 749 752 755 758 761 763 765 768 770 772 774 776 778 781 783 786 788 790 792 794 797 799 801 803 805 806 808 810 811 813 814 816 818 820 822 823 824 824 825 825 825 825 825 825 825 825 825 825 825 826 826 825 825 825 824 824 824 823 823 823 823 823 823 822 822 822 822 821 820 819 817 816 815 813 812 811 810 808 807
735 737 739 741 743 745 748 751 754 756 759 761 764 766 768 771 773 774 776 779 780 782 785 787 789 792 794 797 799 801 803 806 808 809 810 812 813 815 817 818 819 820 821 821 822 822 822 822 823 823 823 822 822 822 823 823 823 822 822 822 822 822 821 821 821 821 821 821 821 821 820 820 820 819 818 816 815 814 813 812 811 810 808 807 805
733 735 736 739 741 743 746 749 752 755 758 760 762 764 766 768 771 772 774 776 778 780 782 784 786 788 790 792 796 799 801 804 806 807 808 809 810 812 814 815 816 817 817 818 819 819 819 819 819 820 820 820 820 820 820 820 820 820 819 819 819 819 819 819 820 820 820 820 819 819 818 818 817 816 815 813 812 812 811 810 809 808 807 805 804
732 733 734 737 739 742 745 747 750 753 756 759 760 762 764 766 768 770 771 772 775 777 779 780 782 785 787 788 791 795 798 800 802 803 805 806 807 808 810 811 813 813 814 814 815 815 815 816 816 816 817 817 817 817 817 817 817 817 817 817 817 817 817 817 817 817 817 817 816 816 815 814 813 813 812 812 811 810 809 808 807 807 805 804 802
729 731 733 735 739 741 744 747 749 751 754 756 758 760 762 764 765 767 768 769 771 773 775 777 778 780 783 785 786 789 793 795 797 799 801 802 804 806 807 809 810 811 811 811 811 812 812 812 812 813 813 813 814 814 814 814 814 814 814 814 815 814 814 815 815 814 814 814 814 813 812 812 811 811 811 810 809 808 807 806 806 804 803 801 800
727 729 731 735 738 741 743 745 747 749 751 754 755 757 759 761 763 764 766 767 768 770 773 774 774 775 778 780 781 784 788 791 793 795 797 798 800 802 804 805 807 808 808 809 809 809 809 809 809 810 810 811 811 811 812 812 812 812 812 812 812 812 812 812 812 812 812 812 811 811 811 810 810 809 809 808 807 807 806 805 803 802 801 800 798
726 727 730 734 737 739 741 743 745 747 749 751 753 755 757 759 760 762 763 764 766 767 769 771 772 773 774 775 778 782 785 787 789 790 792 794 795 797 799 801 803 804 805 806 806 807 806 806 806 807 808 808 809 809 809 809 809 809 810 810 810 810 810 810 809 809 809 809 809 809 808 808 808 807 807 806 805 805 803 802 801 800 799 798 797
724 726 729 732 735 737 739 741 743 745 747 748 751 753 755 756 758 760 761 762 764 765 766 768 770 771 771 773 776 780 783 784 785 786 788 790 791 793 795 797 799 800 801 802 803 803 803 803 804 805 805 806 806 806 807 807 807 807 807 807 807 807 807 807 807 807 806 806 806 806 805 805 805 804 804 803 803 802 801 800 799 798 797 796 795
723 725 728 730 733 735 737 738 740 742 744 746 748 750 752 754 756 757 759 760 762 763 764 766 768 769 770 772 775 778 780 781 782 783 784 786 787 789 791 793 795 796 798 799 800 800 801 801 802 802 803 804 804 804 804 805 805 805 805 805 805 805 804 804 804 804 804 804 803 803 803 802 802 802 801 800 800 799 798 797 797 796 795 794 793
723 725 727 729 731 733 734 736 738 740 742 744 746 749 751 753 754 755 757 758 760 762 764 765 766 767 769 771 773 775 777 778 779 780 781 782 784 785 787 789 791 793 794 795 796 797 798 799 799 800 800 801 801 802 802 802 802 802 802 802 801 801 801 801 801 801 801 801 801 801 800 800 799 799 798 797 797 796 795 795 794 793 792 791 790
723 724 726 727 728 730 732 734 736 737 739 741 744 746 748 750 752 753 754 755 757 760 762 764 764 765 766 768 770 772 773 775 776 777 778 780 781 782 784 787 789 791 791 792 793 794 795 796 796 797 798 798 799 799 800 800 799 799 799 799 798 798 797 798 798 797 798 797 797 798 797 797 796 796 795 795 795 794 793 792 792 791 790 789 788
723 725 725 726 727 728 730 732 734 735 737 739 741 743 745 747 749 751 753 755 757 759 760 761 762 763 764 766 767 769 770 772 773 774 776 777 778 780 782 784 786 787 788 789 790 791 792 793 793 794 795 796 796 797 797 797 797 797 796 795 795 794 794 794 794 794 794 794 794 794 794 794 793 793 793 792 792 791 790 790 789 788 787 786 785
724 725 726 726 727 727 729 731 733 735 737 739 741 742 743 744 747 749 752 754 756 757 757 758 759 760 761 763 765 766 767 769 770 771 773 775 776 778 780 781 783 784 785 786 787 788 789 790 791 791 792 792 792 793 793 794 794 793 792 792 791 791 791 791 791 791 791 791 791 791 791 790 790 790 789 789 789 788 787 787 786 785 784 783 782
723 724 725 725 726 727 728 730 731 733 736 738 740 741 742 743 745 747 749 751 752 753 754 755 755 757 759 761 762 763 765 766 767 769 770 772 774 775 777 778 779 780 781 783 784 785 786 787 788 788 788 789 789 789 789 790 790 790 789 789 788 788 788 788 788 789 789 789 789 788 788 788 787 787 786 785 785 785 784 783 782 782 781 780 780
721 722 723 724 724 725 727 728 730 732 734 736 737 739 740 742 743 744 745 747 748 749 751 751 752 754 756 758 759 761 762 763 764 766 767 769 770 772 773 774 775 776 778 779 781 782 783 784 784 785 785 785 785 785 785 786 786 786 785 785 785 785 785 785 785 786 786 786 785 785 785 784 784 783 783 782 781 781 780 780 779 779 778 777 777
720 721 721 722 723 724 725 727 729 731 732 734 735 736 737 739 739 740 742 742 743 745 748 750 750 752 754 756 757 758 759 761 762 763 764 765 767 768 769 771 772 773 774 776 777 778 779 780 780 780 781 781 782 782 782 782 782 782 782 782 782 782 782 782 782 782 782 782 782 782 781 781 780 780 779 779 778 778 778 777 777 776 775 775 774